User: anonymous   Login
Location: Caltech
(34.1382°N, 118.1253°W)
Time: 19:39:52
(UTC-07:00)
Language:

Iridium 14 - Orbit

View from above orbital plane
View from above orbital plane
View from above satellite
View from above satellite

Ground track
Ground track

The orbit data is extracted from the following two-line orbital elements,

1 25777U 99032A   15209.44557620  .00000193  00000-0  61684-4 0  9993
2 25777 086.4005 152.2788 0002567 086.1140 052.7366 14.34221130855813
Epoch (UTC): 28 July 2015 10:41:37
Eccentricity: 0.0002567
inclination: 86.4005°
perigee height: 776 km
apogee height: 779 km
right ascension of ascending node: 152.2788°
argument of perigee: 86.1140°
revolutions per day: 14.34221130
mean anomaly at epoch: 52.7366°
orbit number at epoch: 85581

The dashed part of the orbit path shows where the satellite is in the earth's shadow,  

DLR